Location: South Cushing
(43.9686°N, 69.2945°W)
Time: 01:43:54
(UTC-05:00)

Tiangong 2 - Visible Passes

Search period start: 21 January 2018 00:00
Search period end: 31 January 2018 00:00
Orbit: 384 x 390 km, 42.8° (Epoch: 20 January)

Date Brightness Start Highest point End Pass type
(mag) Time Alt. Az. Time Alt. Az. Time Alt. Az.
21 Jan 1.6 05:29:09 35° SW 05:30:10 53° SSE 05:33:19 10° E visible
22 Jan 3.8 04:33:17 20° ESE 04:33:17 20° ESE 04:34:33 10° E visible
22 Jan 1.2 06:05:34 14° W 06:08:10 73° S 06:11:22 10° E visible
23 Jan 1.3 05:09:37 65° SSE 05:09:37 65° SSE 05:12:39 10° E visible
24 Jan 4.6 04:13:38 12° E 04:13:38 12° E 04:13:54 10° E visible
24 Jan 1.2 05:45:54 27° W 05:47:29 70° S 05:50:40 10° E visible
25 Jan 2.6 04:49:52 36° ESE 04:49:52 36° ESE 04:51:57 10° E visible
25 Jan 1.9 06:22:22 10° W 06:25:25 44° SSW 06:28:29 10° ESE visible
26 Jan 1.3 05:26:07 46° WSW 05:26:44 58° S 05:29:53 10° ESE visible
27 Jan 3.8 04:30:05 20° ESE 04:30:05 20° ESE 04:31:12 10° ESE visible
27 Jan 2.4 06:02:21 14° W 06:04:36 30° SSW 06:07:27 10° SE visible
28 Jan 2.0 05:06:21 40° S 05:06:21 40° S 05:08:59 10° SE visible
29 Jan 2.9 05:42:39 17° SW 05:43:40 20° SSW 05:46:05 10° SSE visible
30 Jan 3.5 04:46:43 18° SSE 04:46:43 18° SSE 04:47:53 10° SE visible
